Haleyville, AL

6:47 PM CDT on September 30, 2016 (GMT -0500)
Haleyville

Weather History for K1M4 - January, 2013

Change the Weather History Date:

Sunday, January 6, 2013

  Actual Average (KJFX) Record (KJFX)
Temperature  
Mean Temperature 38 °F -  
Max Temperature 45 °F 51 °F 69 °F (2012)
Min Temperature 32 °F 28 °F 12 °F (2014)
Degree Days  
Heating Degree Days 26    
Moisture  
Dew Point 35 °F    
Average Humidity 90    
Maximum Humidity 100    
Minimum Humidity 66    
Precipitation  
Precipitation 0.00 in - - ()
Sea Level Pressure  
Sea Level Pressure 30.30 in    
Wind  
Wind Speed 3 mph (West)    
Max Wind Speed 10 mph    
Max Gust Speed -    
Visibility 7 miles    
Events      
Averages and records for this station are not official NWS values.
T = Trace of Precipitation, MM = Missing Value Source: NWS Daily Summary

Daily Weather History Graph

Daily Weather History Graph

Search for Another Location

Airport or City:

Trip Planner

Search our weather history database for the weather conditions in past years. The results will help you decide how hot, cold, wet, or windy it might be!

Date:

Astronomy

Jan. 06, 2013 Rise Set
Actual Time 6:57 AM CST 4:55 PM CST
Civil Twilight 6:29 AM CST 5:23 PM CST
Nautical Twilight 5:58 AM CST 5:54 PM CST
Astronomical Twilight 5:28 AM CST 6:25 PM CST
Moon 1:17 AM CST (1/6) 12:18 PM CST (1/6)
Length of Visible Light 10h 53m
Length of Day
9h 58m
Waning Crescent, 33% of the Moon is Illuminated
Jan 6
Waning Crescent
Jan 11
New
Jan 18
First Quarter
Jan 26
Full
Feb 3
Last Quarter

Hourly Weather History & Observations

Time (CST) Temp. Windchill Dew Point Humidity Pressure Visibility Wind Dir Wind Speed Gust Speed Precip Events Conditions
12:56 AM 36.9 °F - 36.9 °F 100% 30.30 in 10.0 mi Calm Calm - N/A   Overcast
1:56 AM 36.9 °F 34.3 °F 36.9 °F 100% 30.30 in 7.0 mi WSW 3.5 mph - N/A   Overcast
2:56 AM 36.9 °F 34.3 °F 36.9 °F 100% 30.30 in 2.0 mi SW 3.5 mph - N/A   Overcast
3:07 AM 37.4 °F 34.9 °F 37.4 °F 100% 30.27 in 1.8 mi WSW 3.5 mph - N/A   Overcast
3:20 AM 37.4 °F 34.9 °F 37.4 °F 100% 30.26 in 2.0 mi WSW 3.5 mph - N/A   Overcast
3:56 AM 36.9 °F 34.3 °F 36.9 °F 100% 30.29 in 2.5 mi WSW 3.5 mph - N/A   Overcast
4:29 AM 37.4 °F - 37.4 °F 100% 30.25 in 3.0 mi Calm Calm - N/A   Overcast
4:56 AM 36.9 °F 34.3 °F 36.9 °F 100% 30.28 in 3.0 mi SW 3.5 mph - N/A   Overcast
5:56 AM 36.9 °F - 36.9 °F 100% 30.29 in 4.0 mi Calm Calm - N/A   Overcast
6:56 AM 36.9 °F 34.3 °F 36.9 °F 100% 30.31 in 4.0 mi WSW 3.5 mph - N/A   Overcast
7:09 AM 37.4 °F 34.9 °F 37.4 °F 100% 30.28 in 3.0 mi WSW 3.5 mph - N/A   Overcast
7:56 AM 36.9 °F 34.3 °F 36.9 °F 100% 30.31 in 4.0 mi West 3.5 mph - N/A   Overcast
8:56 AM 37.9 °F 35.5 °F 36.9 °F 96% 30.32 in 6.0 mi West 3.5 mph - N/A   Overcast
9:11 AM 39.2 °F 35.9 °F 37.4 °F 93% 30.29 in 7.0 mi West 4.6 mph - N/A   Overcast
9:56 AM 38.8 °F 36.5 °F 36.9 °F 93% 30.33 in 8.0 mi NW 3.5 mph - N/A   Overcast
10:18 AM 39.2 °F 35.9 °F 35.6 °F 87% 30.30 in 9.0 mi Variable 4.6 mph - N/A   Overcast
10:56 AM 41.9 °F 36.9 °F 36.9 °F 82% 30.32 in 10.0 mi WSW 8.1 mph - N/A   Mostly Cloudy
11:56 AM 43.0 °F 37.2 °F 36.9 °F 79% 30.29 in 10.0 mi WSW 10.4 mph - N/A   Mostly Cloudy
12:37 PM 42.8 °F 40.1 °F 35.6 °F 76% 30.25 in 10.0 mi Variable 4.6 mph - N/A   Mostly Cloudy
12:56 PM 43.9 °F 39.9 °F 36.0 °F 74% 30.28 in 10.0 mi WSW 6.9 mph - N/A   Mostly Cloudy
1:47 PM 44.6 °F 41.4 °F 35.6 °F 71% 30.24 in 10.0 mi WNW 5.8 mph - N/A   Scattered Clouds
1:56 PM 45.9 °F 43.6 °F 36.0 °F 68% 30.26 in 10.0 mi Variable 4.6 mph - N/A   Partly Cloudy
3:56 PM 45.9 °F 42.3 °F 34.9 °F 66% 30.28 in 10.0 mi West 6.9 mph - N/A   Clear
4:56 PM 43.0 °F - 34.9 °F 73% 30.28 in 10.0 mi Calm Calm - N/A   Clear
6:56 PM 36.0 °F 33.3 °F 34.0 °F 93% 30.32 in 10.0 mi North 3.5 mph - N/A   Clear
7:56 PM 32.9 °F 28.5 °F 31.1 °F 93% 30.35 in 10.0 mi SSW 4.6 mph - N/A   Clear
8:56 PM 34.0 °F 29.8 °F 31.1 °F 89% 30.37 in 10.0 mi North 4.6 mph - N/A   Clear
9:56 PM 34.0 °F 28.8 °F 31.1 °F 89% 30.37 in 10.0 mi North 5.8 mph - N/A   Clear
10:56 PM 32.9 °F 28.5 °F 30.0 °F 89% 30.37 in 10.0 mi North 4.6 mph - N/A   Clear
11:56 PM 32.0 °F 27.5 °F 29.1 °F 89% 30.38 in 10.0 mi North 4.6 mph - N/A   Clear